| time (UTC) | temp C | wind direction | speed KPH | gust KPH | rain 1hr cm | rain 24hr cm | rain mn cm | humidity % | barometer mb |
| 20260902102307 | 18 | 347 | 4.8 | 14.5 | 0.00 | 0.03 | 0.00 | 83 | 1020.4 |
| 20260902101740 | 18 | 10 | 4.8 | 14.5 | 0.00 | 0.03 | 0.00 | 83 | 1020.5 |
| 20260902101214 | 18 | 341 | 3.2 | 14.5 | 0.00 | 0.03 | 0.00 | 83 | 1020.5 |
| 20260902100122 | 18 | 353 | 3.2 | 9.7 | 0.00 | 0.03 | 0.00 | 82 | 1020.4 |
| 20260902095607 | 18 | 342 | 3.2 | 9.7 | 0.00 | 0.03 | 0.00 | 82 | 1020.4 |
| 20260902095025 | 18 | 351 | 4.8 | 9.7 | 0.00 | 0.03 | 0.00 | 82 | 1020.3 |
| 20260902094455 | 19 | 340 | 4.8 | 9.7 | 0.00 | 0.03 | 0.00 | 82 | 1020.3 |
| 20260902093944 | 19 | 354 | 4.8 | 9.7 | 0.00 | 0.03 | 0.00 | 83 | 1020.2 |
| 20260902093440 | 19 | 343 | 4.8 | 11.3 | 0.00 | 0.03 | 0.00 | 82 | 1020.2 |
| 20260902092947 | 19 | 338 | 4.8 | 11.3 | 0.00 | 0.03 | 0.00 | 82 | 1020.2 |
| 20260902092432 | 19 | 2 | 4.8 | 8.0 | 0.00 | 0.03 | 0.00 | 82 | 1020.2 |
| 20260902091925 | 19 | 340 | 4.8 | 12.9 | 0.00 | 0.03 | 0.00 | 82 | 1020.1 |
| 20260902091427 | 19 | 310 | 4.8 | 12.9 | 0.00 | 0.03 | 0.00 | 82 | 1020.1 |
| 20260902091144 | 19 | 341 | 4.8 | 14.5 | 0.00 | 0.03 | 0.00 | 82 | 1020.0 |
| 20260902090416 | 19 | 342 | 4.8 | 14.5 | 0.00 | 0.03 | 0.00 | 81 | 1020.1 |
| 20260902085915 | 19 | 353 | 4.8 | 12.9 | 0.00 | 0.03 | 0.00 | 81 | 1020.0 |
| 20260902085415 | 19 | 355 | 3.2 | 12.9 | 0.00 | 0.03 | 0.00 | 81 | 1020.0 |
| 20260902084914 | 19 | 30 | 3.2 | 9.7 | 0.00 | 0.03 | 0.00 | 81 | 1019.9 |
| 20260902084413 | 19 | 345 | 4.8 | 14.5 | 0.00 | 0.03 | 0.00 | 80 | 1019.9 |
| 20260902083913 | 19 | 23 | 4.8 | 14.5 | 0.00 | 0.03 | 0.00 | 80 | 1019.9 |
| 20260902083415 | 19 | 349 | 4.8 | 14.5 | 0.00 | 0.03 | 0.00 | 80 | 1019.8 |
| 20260902082859 | 20 | 2 | 4.8 | 12.9 | 0.00 | 0.03 | 0.00 | 80 | 1019.8 |
| 20260902082328 | 20 | 344 | 4.8 | 12.9 | 0.00 | 0.03 | 0.00 | 80 | 1019.8 |
| 20260902081830 | 20 | 355 | 4.8 | 12.9 | 0.00 | 0.03 | 0.00 | 79 | 1019.8 |
| 20260902081321 | 20 | 353 | 4.8 | 12.9 | 0.00 | 0.03 | 0.00 | 79 | 1019.7 |
| 20260902080819 | 20 | 339 | 6.4 | 12.9 | 0.00 | 0.03 | 0.00 | 78 | 1019.7 |
| 20260902080313 | 20 | 337 | 6.4 | 12.9 | 0.00 | 0.03 | 0.00 | 78 | 1019.6 |
| 20260902075811 | 20 | 327 | 6.4 | 14.5 | 0.00 | 0.03 | 0.00 | 77 | 1019.6 |
| 20260902075310 | 20 | 0 | 4.8 | 14.5 | 0.00 | 0.03 | 0.00 | 77 | 1019.5 |
| 20260902074807 | 20 | 29 | 4.8 | 17.7 | 0.00 | 0.03 | 0.00 | 76 | 1019.5 |
| 20260902074305 | 20 | 346 | 4.8 | 17.7 | 0.00 | 0.03 | 0.00 | 76 | 1019.4 |
| 20260902073803 | 20 | 353 | 6.4 | 17.7 | 0.00 | 0.03 | 0.00 | 75 | 1019.4 |
| 20260902073301 | 20 | 342 | 4.8 | 17.7 | 0.00 | 0.03 | 0.00 | 74 | 1019.4 |
| 20260902072801 | 21 | 26 | 4.8 | 9.7 | 0.00 | 0.03 | 0.00 | 73 | 1019.3 |
| 20260902072301 | 21 | 357 | 6.4 | 20.9 | 0.00 | 0.03 | 0.00 | 72 | 1019.2 |
| 20260902071759 | 21 | 0 | 8.0 | 20.9 | 0.00 | 0.03 | 0.00 | 72 | 1019.3 |
| 20260902071301 | 21 | 344 | 6.4 | 16.1 | 0.00 | 0.03 | 0.00 | 71 | 1019.2 |
| 20260902070759 | 21 | 10 | 4.8 | 16.1 | 0.00 | 0.03 | 0.00 | 70 | 1019.2 |
| 20260902070259 | 21 | 41 | 4.8 | 12.9 | 0.00 | 0.03 | 0.00 | 69 | 1019.1 |
| 20260902070025 | 21 | 358 | 6.4 | 16.1 | 0.00 | 0.03 | 0.00 | 69 | 1019.1 |
| 20260902065258 | 21 | 6 | 6.4 | 16.1 | 0.00 | 0.03 | 0.00 | 69 | 1019.1 |
| 20260902064759 | 21 | 328 | 3.2 | 11.3 | 0.00 | 0.03 | 0.00 | 69 | 1018.9 |
| 20260902064237 | 21 | 349 | 3.2 | 11.3 | 0.00 | 0.03 | 0.00 | 69 | 1019.0 |
| 20260902063738 | 22 | 43 | 4.8 | 14.5 | 0.00 | 0.03 | 0.00 | 67 | 1019.0 |
| 20260902063210 | 22 | 60 | 4.8 | 14.5 | 0.00 | 0.03 | 0.00 | 67 | 1018.9 |
| 20260902062657 | 22 | 47 | 3.2 | 12.9 | 0.00 | 0.03 | 0.00 | 66 | 1018.9 |
| 20260902062155 | 22 | 79 | 3.2 | 12.9 | 0.00 | 0.03 | 0.00 | 65 | 1018.9 |
| 20260902061655 | 22 | 19 | 4.8 | 12.9 | 0.00 | 0.03 | 0.00 | 64 | 1018.9 |
| 20260902061418 | 22 | 79 | 4.8 | 12.9 | 0.00 | 0.03 | 0.00 | 62 | 1018.9 |
| 20260902060655 | 23 | 46 | 3.2 | 11.3 | 0.00 | 0.03 | 0.00 | 61 | 1018.8 |
| 20260902060155 | 23 | 29 | 3.2 | 11.3 | 0.00 | 0.03 | 0.00 | 60 | 1018.8 |
| 20260902055653 | 23 | 341 | 3.2 | 11.3 | 0.00 | 0.03 | 0.00 | 60 | 1018.9 |
| 20260902055153 | 23 | 38 | 3.2 | 12.9 | 0.00 | 0.03 | 0.00 | 60 | 1018.9 |
| 20260902054654 | 23 | 63 | 4.8 | 16.1 | 0.00 | 0.03 | 0.00 | 59 | 1019.0 |
| 20260902054154 | 23 | 72 | 6.4 | 16.1 | 0.00 | 0.03 | 0.00 | 58 | 1019.1 |
| 20260902053654 | 23 | 13 | 6.4 | 16.1 | 0.00 | 0.03 | 0.00 | 58 | 1019.1 |
| 20260902053153 | 23 | 5 | 6.4 | 16.1 | 0.00 | 0.03 | 0.00 | 58 | 1019.2 |
| 20260902052653 | 23 | 84 | 6.4 | 16.1 | 0.00 | 0.03 | 0.00 | 57 | 1019.2 |
| 20260902052126 | 23 | 355 | 6.4 | 20.9 | 0.00 | 0.03 | 0.00 | 58 | 1019.2 |
| 20260902051626 | 23 | 339 | 6.4 | 20.9 | 0.00 | 0.03 | 0.00 | 58 | 1019.3 |
| 20260902051126 | 23 | 341 | 6.4 | 16.1 | 0.00 | 0.03 | 0.00 | 59 | 1019.3 |
| 20260902050852 | 23 | 66 | 6.4 | 16.1 | 0.00 | 0.03 | 0.00 | 59 | 1019.3 |
| 20260902050125 | 23 | 73 | 4.8 | 14.5 | 0.00 | 0.03 | 0.00 | 61 | 1019.3 |
| 20260902045846 | 23 | 29 | 4.8 | 16.1 | 0.00 | 0.03 | 0.00 | 60 | 1019.4 |
| 20260902045125 | 24 | 62 | 4.8 | 16.1 | 0.00 | 0.03 | 0.00 | 61 | 1019.4 |
| 20260902044841 | 24 | 59 | 4.8 | 14.5 | 0.00 | 0.03 | 0.00 | 61 | 1019.5 |
| 20260902044121 | 24 | 59 | 6.4 | 14.5 | 0.00 | 0.03 | 0.00 | 61 | 1019.5 |
| 20260902043620 | 24 | 51 | 6.4 | 16.1 | 0.00 | 0.03 | 0.00 | 60 | 1019.6 |
| 20260902043120 | 25 | 353 | 4.8 | 16.1 | 0.00 | 0.03 | 0.00 | 60 | 1019.6 |
| 20260902042622 | 25 | 57 | 4.8 | 14.5 | 0.00 | 0.03 | 0.00 | 60 | 1019.7 |
| 20260902042105 | 25 | 70 | 4.8 | 14.5 | 0.00 | 0.03 | 0.00 | 59 | 1019.7 |
| 20260902041605 | 25 | 347 | 4.8 | 12.9 | 0.00 | 0.03 | 0.00 | 59 | 1019.7 |
| 20260902041103 | 25 | 35 | 4.8 | 12.9 | 0.00 | 0.03 | 0.00 | 59 | 1019.8 |
| 20260902040602 | 25 | 22 | 4.8 | 12.9 | 0.00 | 0.03 | 0.00 | 59 | 1019.8 |
| 20260902040115 | 25 | 50 | 6.4 | 16.1 | 0.00 | 0.03 | 0.00 | 58 | 1019.9 |
| 20260902035601 | 25 | 38 | 6.4 | 19.3 | 0.00 | 0.03 | 0.00 | 56 | 1020.0 |
| 20260902035100 | 25 | 327 | 6.4 | 19.3 | 0.00 | 0.03 | 0.00 | 56 | 1020.0 |
| 20260902034601 | 25 | 341 | 6.4 | 17.7 | 0.00 | 0.03 | 0.00 | 56 | 1020.0 |
| 20260902034101 | 25 | 52 | 6.4 | 17.7 | 0.00 | 0.03 | 0.00 | 55 | 1020.1 |
| 20260902033600 | 25 | 351 | 8.0 | 16.1 | 0.00 | 0.03 | 0.00 | 53 | 1020.1 |
| 20260902033059 | 25 | 16 | 8.0 | 16.1 | 0.00 | 0.03 | 0.00 | 56 | 1020.2 |
| 20260902032553 | 25 | 66 | 8.0 | 16.1 | 0.00 | 0.03 | 0.00 | 53 | 1020.3 |
| 20260902032050 | 25 | 342 | 4.8 | 12.9 | 0.00 | 0.03 | 0.00 | 54 | 1020.4 |
| 20260902031549 | 25 | 66 | 4.8 | 12.9 | 0.00 | 0.03 | 0.00 | 54 | 1020.4 |
| 20260902031050 | 26 | 52 | 4.8 | 12.9 | 0.00 | 0.03 | 0.00 | 53 | 1020.5 |
| 20260902030534 | 26 | 20 | 4.8 | 12.9 | 0.00 | 0.03 | 0.00 | 54 | 1020.6 |
| 20260902030034 | 26 | 318 | 4.8 | 12.9 | 0.00 | 0.03 | 0.00 | 53 | 1020.7 |
| 20260902025506 | 25 | 49 | 4.8 | 12.9 | 0.00 | 0.03 | 0.00 | 55 | 1020.8 |
| 20260902025006 | 25 | 24 | 4.8 | 11.3 | 0.00 | 0.03 | 0.00 | 55 | 1020.9 |
| 20260902024503 | 25 | 55 | 3.2 | 11.3 | 0.00 | 0.03 | 0.00 | 55 | 1021.1 |
| 20260902024222 | 25 | 311 | 3.2 | 11.3 | 0.00 | 0.03 | 0.00 | 56 | 1021.2 |
| 20260902023458 | 25 | 31 | 3.2 | 11.3 | 0.00 | 0.03 | 0.00 | 55 | 1021.3 |
| 20260902022959 | 25 | 33 | 4.8 | 12.9 | 0.00 | 0.03 | 0.00 | 54 | 1021.4 |
| 20260902022459 | 25 | 2 | 4.8 | 14.5 | 0.00 | 0.03 | 0.00 | 54 | 1021.6 |
| 20260902022000 | 25 | 8 | 6.4 | 14.5 | 0.00 | 0.03 | 0.00 | 53 | 1021.6 |
| 20260902021457 | 26 | 43 | 4.8 | 11.3 | 0.00 | 0.03 | 0.00 | 54 | 1021.7 |
| 20260902020955 | 26 | 4 | 3.2 | 11.3 | 0.00 | 0.03 | 0.00 | 53 | 1021.7 |
| 20260902020453 | 26 | 29 | 3.2 | 8.0 | 0.00 | 0.03 | 0.00 | 55 | 1021.8 |
| 20260902020217 | 25 | 7 | 3.2 | 8.0 | 0.00 | 0.03 | 0.00 | 54 | 1021.8 |
| 20260902015452 | 25 | 343 | 4.8 | 9.7 | 0.00 | 0.03 | 0.00 | 54 | 1021.9 |
| 20260902014950 | 25 | 356 | 4.8 | 11.3 | 0.00 | 0.03 | 0.00 | 55 | 1022.1 |
| 20260902014448 | 25 | 333 | 4.8 | 12.9 | 0.00 | 0.03 | 0.00 | 54 | 1022.3 |
| 20260902013949 | 25 | 16 | 4.8 | 12.9 | 0.00 | 0.03 | 0.00 | 54 | 1022.5 |
| 20260902013932 | 25 | 335 | 4.8 | 14.5 | 0.00 | 0.03 | 0.00 | 54 | 1022.6 |
| 20260902012950 | 25 | 323 | 3.2 | 14.5 | 0.00 | 0.03 | 0.00 | 54 | 1022.8 |
| 20260902012434 | 25 | 2 | 1.6 | 8.0 | 0.00 | 0.03 | 0.00 | 53 | 1022.9 |
| 20260902011935 | 25 | 262 | 1.6 | 8.0 | 0.00 | 0.03 | 0.00 | 51 | 1023.0 |
| 20260902011418 | 25 | 264 | 1.6 | 8.0 | 0.00 | 0.03 | 0.00 | 54 | 1023.1 |
| 20260902010917 | 25 | 241 | 1.6 | 8.0 | 0.00 | 0.03 | 0.00 | 54 | 1023.3 |
| 20260902010423 | 24 | 216 | 3.2 | 8.0 | 0.00 | 0.03 | 0.00 | 55 | 1023.4 |
| 20260902005910 | 24 | 320 | 3.2 | 8.0 | 0.00 | 0.03 | 0.00 | 55 | 1023.5 |
| 20260902005407 | 24 | 333 | 3.2 | 9.7 | 0.00 | 0.03 | 0.00 | 57 | 1023.7 |
| 20260902004904 | 23 | 8 | 4.8 | 11.3 | 0.00 | 0.03 | 0.00 | 55 | 1023.7 |
| 20260902004403 | 23 | 345 | 3.2 | 11.3 | 0.00 | 0.03 | 0.00 | 56 | 1023.9 |
| 20260902003903 | 23 | 312 | 1.6 | 8.0 | 0.00 | 0.03 | 0.00 | 59 | 1024.0 |
| 20260902003358 | 23 | 251 | 1.6 | 8.0 | 0.00 | 0.03 | 0.00 | 60 | 1024.0 |
| 20260902002858 | 23 | 234 | 3.2 | 8.0 | 0.00 | 0.03 | 0.00 | 61 | 1024.1 |
| 20260902002350 | 22 | 238 | 3.2 | 9.7 | 0.00 | 0.03 | 0.00 | 61 | 1024.2 |
| 20260902001848 | 22 | 238 | 3.2 | 9.7 | 0.00 | 0.03 | 0.00 | 63 | 1024.2 |
| 20260902001346 | 22 | 239 | 3.2 | 9.7 | 0.00 | 0.03 | 0.00 | 63 | 1024.3 |
| 20260902001111 | 22 | 242 | 3.2 | 9.7 | 0.00 | 0.03 | 0.00 | 64 | 1024.3 |
| 20260902000325 | 22 | 222 | 3.2 | 8.0 | 0.00 | 0.03 | 0.00 | 66 | 1024.4 |
| 20260901235753 | 21 | 346 | 3.2 | 8.0 | 0.00 | 0.03 | 0.00 | 68 | 1024.5 |
| 20260901235258 | 21 | 247 | 1.6 | 8.0 | 0.00 | 0.03 | 0.00 | 69 | 1024.5 |
| 20260901234726 | 21 | 318 | 1.6 | 8.0 | 0.00 | 0.03 | 0.00 | 70 | 1024.6 |
| 20260901234425 | 21 | 306 | 3.2 | 8.0 | 0.00 | 0.03 | 0.00 | 72 | 1024.7 |
| 20260901233855 | 20 | 316 | 1.6 | 9.7 | 0.00 | 0.03 | 0.00 | 73 | 1024.8 |
| 20260901233107 | 20 | 353 | 1.6 | 8.0 | 0.00 | 0.03 | 0.00 | 75 | 1024.8 |
| 20260901232539 | 20 | 353 | 1.6 | 8.0 | 0.00 | 0.03 | 0.00 | 77 | 1024.8 |
| 20260901232011 | 19 | 225 | 1.6 | 8.0 | 0.00 | 0.03 | 0.00 | 79 | 1024.8 |
| 20260901231445 | 19 | 328 | 1.6 | 8.0 | 0.00 | 0.03 | 0.00 | 81 | 1024.8 |
| 20260901230931 | 19 | 245 | 1.6 | 4.8 | 0.00 | 0.03 | 0.00 | 83 | 1024.9 |
| 20260901230353 | 18 | 239 | 1.6 | 6.4 | 0.00 | 0.03 | 0.00 | 86 | 1024.9 |
| 20260901225829 | 18 | 226 | 1.6 | 6.4 | 0.00 | 0.03 | 0.00 | 87 | 1025.0 |
| 20260901225324 | 17 | 238 | 1.6 | 6.4 | 0.00 | 0.03 | 0.00 | 88 | 1025.1 |
| 20260901224824 | 17 | 278 | 3.2 | 6.4 | 0.00 | 0.03 | 0.00 | 90 | 1025.0 |
| 20260901224324 | 17 | 243 | 3.2 | 6.4 | 0.00 | 0.03 | 0.00 | 91 | 1025.1 |
| 20260901223824 | 16 | 225 | 3.2 | 8.0 | 0.00 | 0.03 | 0.00 | 93 | 1025.1 |
| 20260901223326 | 16 | 216 | 3.2 | 8.0 | 0.00 | 0.03 | 0.00 | 94 | 1025.2 |
| 20260901222819 | 16 | 240 | 3.2 | 8.0 | 0.00 | 0.03 | 0.00 | 95 | 1025.2 |
| 20260901222542 | 15 | 231 | 3.2 | 8.0 | 0.00 | 0.03 | 0.00 | 95 | 1025.2 |
| 20260901222257 | 15 | 241 | 3.2 | 9.7 | 0.00 | 0.05 | 0.00 | 95 | 1025.2 |
| 20260901221317 | 15 | 235 | 3.2 | 9.7 | 0.00 | 0.05 | 0.00 | 95 | 1025.1 |
| 20260901220816 | 15 | 241 | 1.6 | 8.0 | 0.00 | 0.05 | 0.00 | 95 | 1025.0 |
| 20260901220316 | 15 | 224 | 1.6 | 8.0 | 0.00 | 0.05 | 0.00 | 95 | 1025.0 |
| 20260901215814 | 14 | 195 | 3.2 | 6.4 | 0.00 | 0.05 | 0.00 | 95 | 1024.9 |
| 20260901215316 | 14 | 180 | 3.2 | 4.8 | 0.00 | 0.05 | 0.00 | 95 | 1024.9 |
| 20260901215231 | 13 | 175 | 1.6 | 6.4 | 0.00 | 0.05 | 0.00 | 95 | 1024.9 |
| 20260901214227 | 13 | 150 | 1.6 | 6.4 | 0.00 | 0.05 | 0.00 | 95 | 1024.8 |
| 20260901213728 | 12 | 205 | 1.6 | 6.4 | 0.00 | 0.05 | 0.00 | 95 | 1024.8 |
| 20260901213446 | 12 | 245 | 0.0 | 6.4 | 0.00 | 0.05 | 0.00 | 95 | 1024.7 |
| 20260901212725 | 11 | 246 | 0.0 | 3.2 | 0.00 | 0.05 | 0.00 | 95 | 1024.6 |
| 20260901212451 | 11 | 246 | 0.0 | 1.6 | 0.00 | 0.05 | 0.00 | 94 | 1024.5 |
| 20260901211720 | 11 | 246 | 0.0 | 0.0 | 0.00 | 0.05 | 0.00 | 94 | 1024.5 |
| 20260901211216 | 11 | 246 | 0.0 | 0.0 | 0.00 | 0.05 | 0.00 | 94 | 1024.4 |
| 20260901210716 | 10 | 247 | 0.0 | 0.0 | 0.00 | 0.05 | 0.00 | 94 | 1024.4 |
| 20260901210216 | 10 | 247 | 0.0 | 0.0 | 0.00 | 0.05 | 0.00 | 94 | 1024.4 |
| 20260901205714 | 10 | 247 | 0.0 | 0.0 | 0.00 | 0.05 | 0.00 | 93 | 1024.4 |
| 20260901205213 | 10 | 247 | 0.0 | 0.0 | 0.00 | 0.05 | 0.00 | 93 | 1024.3 |
| 20260901204710 | 10 | 247 | 0.0 | 0.0 | 0.00 | 0.05 | 0.00 | 93 | 1024.3 |
| 20260901204209 | 10 | 247 | 0.0 | 0.0 | 0.00 | 0.05 | 0.00 | 93 | 1024.3 |
| 20260901203706 | 10 | 247 | 0.0 | 0.0 | 0.00 | 0.05 | 0.00 | 93 | 1024.3 |
| 20260901203204 | 10 | 247 | 0.0 | 0.0 | 0.00 | 0.05 | 0.00 | 93 | 1024.2 |
| 20260901202658 | 10 | 247 | 0.0 | 1.6 | 0.00 | 0.05 | 0.00 | 93 | 1024.2 |
| 20260901202158 | 10 | 247 | 0.0 | 1.6 | 0.00 | 0.05 | 0.00 | 93 | 1024.2 |
| 20260901201653 | 10 | 247 | 0.0 | 1.6 | 0.00 | 0.05 | 0.00 | 93 | 1024.2 |
| 20260901201423 | 10 | 247 | 0.0 | 1.6 | 0.00 | 0.05 | 0.00 | 93 | 1024.3 |
| 20260901200653 | 10 | 247 | 0.0 | 1.6 | 0.00 | 0.05 | 0.00 | 93 | 1024.1 |
| 20260901200151 | 10 | 247 | 0.0 | 1.6 | 0.00 | 0.05 | 0.00 | 93 | 1024.0 |
| 20260901195652 | 10 | 247 | 0.0 | 3.2 | 0.00 | 0.05 | 0.00 | 93 | 1024.0 |
| 20260901195149 | 10 | 247 | 0.0 | 3.2 | 0.00 | 0.05 | 0.00 | 93 | 1024.1 |
| 20260901194647 | 10 | 247 | 0.0 | 3.2 | 0.00 | 0.05 | 0.00 | 93 | 1024.0 |
| 20260901194148 | 10 | 247 | 0.0 | 3.2 | 0.00 | 0.05 | 0.00 | 93 | 1024.1 |
| 20260901193645 | 10 | 247 | 0.0 | 1.6 | 0.00 | 0.05 | 0.00 | 93 | 1024.0 |
| 20260901193146 | 10 | 247 | 0.0 | 1.6 | 0.00 | 0.05 | 0.00 | 93 | 1024.0 |
| 20260901193132 | 10 | 247 | 0.0 | 0.0 | 0.00 | 0.05 | 0.00 | 93 | 1023.9 |
| 20260901192411 | 10 | 247 | 0.0 | 0.0 | 0.00 | 0.05 | 0.00 | 93 | 1023.9 |
| 20260901191645 | 11 | 247 | 0.0 | 0.0 | 0.00 | 0.05 | 0.00 | 93 | 1023.8 |
| 20260901191146 | 11 | 247 | 0.0 | 0.0 | 0.00 | 0.05 | 0.00 | 93 | 1023.8 |
| 20260901191134 | 11 | 247 | 0.0 | 0.0 | 0.00 | 0.05 | 0.00 | 93 | 1023.7 |
| 20260901190141 | 11 | 247 | 0.0 | 3.2 | 0.00 | 0.05 | 0.00 | 93 | 1023.6 |
| 20260901185640 | 11 | 247 | 0.0 | 3.2 | 0.00 | 0.05 | 0.00 | 93 | 1023.7 |
| 20260901185142 | 11 | 247 | 0.0 | 3.2 | 0.00 | 0.05 | 0.00 | 93 | 1023.6 |
| 20260901184642 | 11 | 247 | 0.0 | 3.2 | 0.00 | 0.05 | 0.00 | 93 | 1023.7 |
| 20260901184141 | 11 | 247 | 0.0 | 3.2 | 0.00 | 0.05 | 0.00 | 93 | 1023.7 |
| 20260901183835 | 11 | 247 | 0.0 | 3.2 | 0.00 | 0.05 | 0.00 | 93 | 1023.7 |
| 20260901183106 | 11 | 247 | 0.0 | 3.2 | 0.00 | 0.05 | 0.00 | 93 | 1023.6 |
| 20260901182605 | 10 | 247 | 0.0 | 8.0 | 0.00 | 0.05 | 0.00 | 93 | 1023.7 |
| 20260901182106 | 10 | 247 | 0.0 | 8.0 | 0.00 | 0.05 | 0.00 | 93 | 1023.6 |
| 20260901181600 | 10 | 247 | 1.6 | 8.0 | 0.00 | 0.05 | 0.00 | 93 | 1023.6 |
| 20260901181059 | 10 | 247 | 1.6 | 8.0 | 0.00 | 0.05 | 0.00 | 93 | 1023.6 |
| 20260901180600 | 10 | 241 | 1.6 | 8.0 | 0.00 | 0.05 | 0.00 | 93 | 1023.5 |
| 20260901180109 | 10 | 175 | 0.0 | 6.4 | 0.00 | 0.05 | 0.00 | 92 | 1023.5 |
| 20260901175833 | 10 | 153 | 0.0 | 1.6 | 0.00 | 0.05 | 0.00 | 92 | 1023.5 |
| 20260901175057 | 10 | 153 | 0.0 | 1.6 | 0.00 | 0.05 | 0.00 | 92 | 1023.5 |
| 20260901174557 | 10 | 153 | 0.0 | 1.6 | 0.00 | 0.05 | 0.00 | 92 | 1023.5 |
| 20260901174058 | 10 | 153 | 0.0 | 1.6 | 0.00 | 0.05 | 0.00 | 92 | 1023.6 |
| 20260901173821 | 10 | 153 | 0.0 | 1.6 | 0.00 | 0.05 | 0.00 | 92 | 1023.5 |
| 20260901173053 | 10 | 153 | 0.0 | 1.6 | 0.00 | 0.05 | 0.00 | 92 | 1023.5 |
| 20260901172808 | 10 | 153 | 0.0 | 1.6 | 0.00 | 0.05 | 0.00 | 92 | 1023.6 |
| 20260901172053 | 10 | 153 | 0.0 | 0.0 | 0.00 | 0.05 | 0.00 | 92 | 1023.6 |
| 20260901171538 | 10 | 153 | 0.0 | 0.0 | 0.00 | 0.05 | 0.00 | 92 | 1023.7 |
| 20260901171037 | 10 | 153 | 0.0 | 0.0 | 0.00 | 0.05 | 0.00 | 92 | 1023.8 |
| 20260901170526 | 10 | 153 | 0.0 | 0.0 | 0.00 | 0.05 | 0.00 | 92 | 1023.8 |
| 20260901170025 | 10 | 153 | 0.0 | 0.0 | 0.00 | 0.05 | 0.00 | 92 | 1023.9 |
| 20260901165743 | 10 | 153 | 0.0 | 0.0 | 0.00 | 0.05 | 0.00 | 92 | 1023.9 |
| 20260901165023 | 10 | 153 | 0.0 | 0.0 | 0.00 | 0.05 | 0.00 | 92 | 1024.0 |
| 20260901164521 | 10 | 153 | 0.0 | 0.0 | 0.00 | 0.05 | 0.00 | 92 | 1024.1 |
| 20260901164226 | 10 | 153 | 0.0 | 0.0 | 0.00 | 0.05 | 0.00 | 91 | 1024.2 |
| 20260901164112 | 10 | 153 | 0.0 | 0.0 | 0.00 | 0.05 | 0.00 | 92 | 1024.2 |
| 20260901163016 | 10 | 153 | 0.0 | 1.6 | 0.00 | 0.05 | 0.00 | 91 | 1024.3 |
| 20260901162515 | 10 | 153 | 0.0 | 1.6 | 0.00 | 0.05 | 0.00 | 91 | 1024.3 |
| 20260901162012 | 10 | 153 | 0.0 | 0.0 | 0.00 | 0.05 | 0.00 | 91 | 1024.4 |
| 20260901161510 | 10 | 153 | 0.0 | 1.6 | 0.00 | 0.05 | 0.00 | 91 | 1024.4 |
| 20260901161008 | 10 | 153 | 0.0 | 1.6 | 0.00 | 0.05 | 0.00 | 91 | 1024.4 |
| 20260901160507 | 10 | 153 | 0.0 | 1.6 | 0.00 | 0.05 | 0.00 | 91 | 1024.5 |
| 20260901160228 | 10 | 153 | 0.0 | 1.6 | 0.00 | 0.05 | 0.00 | 91 | 1024.6 |
| 20260901155502 | 10 | 153 | 0.0 | 1.6 | 0.00 | 0.05 | 0.00 | 91 | 1024.5 |
| 20260901155000 | 10 | 153 | 0.0 | 1.6 | 0.00 | 0.05 | 0.00 | 91 | 1024.6 |
| 20260901154457 | 10 | 153 | 0.0 | 0.0 | 0.00 | 0.05 | 0.00 | 91 | 1024.5 |
| 20260901154220 | 10 | 153 | 0.0 | 1.6 | 0.00 | 0.05 | 0.00 | 91 | 1024.5 |
| 20260901153430 | 10 | 153 | 0.0 | 1.6 | 0.00 | 0.05 | 0.00 | 91 | 1024.5 |
| 20260901153140 | 10 | 153 | 0.0 | 1.6 | 0.00 | 0.05 | 0.00 | 91 | 1024.6 |
| 20260901152429 | 11 | 153 | 0.0 | 1.6 | 0.00 | 0.05 | 0.00 | 91 | 1024.5 |
| 20260901151913 | 11 | 153 | 0.0 | 1.6 | 0.00 | 0.05 | 0.00 | 91 | 1024.5 |
| 20260901151412 | 11 | 153 | 0.0 | 1.6 | 0.00 | 0.05 | 0.00 | 91 | 1024.7 |
| 20260901150912 | 11 | 153 | 0.0 | 1.6 | 0.00 | 0.05 | 0.00 | 91 | 1024.6 |
| 20260901150637 | 11 | 153 | 0.0 | 0.0 | 0.00 | 0.05 | 0.00 | 91 | 1024.7 |
| 20260901145908 | 11 | 153 | 0.0 | 0.0 | 0.00 | 0.05 | 0.00 | 91 | 1024.7 |
| 20260901145408 | 11 | 153 | 0.0 | 0.0 | 0.00 | 0.05 | 0.00 | 91 | 1024.7 |
| 20260901144902 | 11 | 153 | 0.0 | 0.0 | 0.00 | 0.05 | 0.00 | 91 | 1024.8 |
| 20260901144400 | 11 | 153 | 0.0 | 0.0 | 0.00 | 0.05 | 0.00 | 91 | 1024.8 |
| 20260901144120 | 11 | 153 | 0.0 | 1.6 | 0.00 | 0.05 | 0.00 | 91 | 1024.9 |
| 20260901143400 | 11 | 153 | 0.0 | 0.0 | 0.00 | 0.05 | 0.00 | 91 | 1024.9 |
| 20260901142836 | 11 | 153 | 0.0 | 1.6 | 0.03 | 0.05 | 0.00 | 90 | 1025.0 |
| 20260901142333 | 11 | 153 | 0.0 | 0.0 | 0.03 | 0.05 | 0.00 | 90 | 1025.1 |
| 20260901141831 | 11 | 153 | 0.0 | 0.0 | 0.03 | 0.05 | 0.00 | 90 | 1025.1 |
| 20260901141330 | 11 | 153 | 0.0 | 0.0 | 0.03 | 0.05 | 0.00 | 90 | 1025.1 |
| 20260901141052 | 11 | 153 | 0.0 | 1.6 | 0.03 | 0.05 | 0.00 | 90 | 1025.2 |
| 20260901140326 | 11 | 153 | 0.0 | 1.6 | 0.03 | 0.05 | 0.00 | 90 | 1025.2 |
| 20260901135824 | 11 | 153 | 0.0 | 0.0 | 0.03 | 0.05 | 0.05 | 90 | 1025.3 |
| 20260901135548 | 11 | 153 | 0.0 | 0.0 | 0.03 | 0.05 | 0.05 | 90 | 1025.3 |
| 20260901134822 | 11 | 153 | 0.0 | 0.0 | 0.03 | 0.05 | 0.05 | 90 | 1025.4 |
| 20260901134318 | 11 | 153 | 0.0 | 0.0 | 0.03 | 0.05 | 0.05 | 90 | 1025.4 |
| 20260901133818 | 11 | 153 | 0.0 | 0.0 | 0.03 | 0.05 | 0.05 | 90 | 1025.5 |
| 20260901133538 | 11 | 153 | 0.0 | 0.0 | 0.00 | 0.03 | 0.03 | 90 | 1025.5 |
| 20260901132807 | 11 | 153 | 0.0 | 0.0 | 0.00 | 0.03 | 0.03 | 90 | 1025.5 |
| 20260901132307 | 12 | 153 | 0.0 | 1.6 | 0.00 | 0.03 | 0.03 | 90 | 1025.6 |
| 20260901131811 | 12 | 153 | 0.0 | 1.6 | 0.00 | 0.03 | 0.03 | 90 | 1025.6 |
| 20260901131302 | 12 | 153 | 0.0 | 0.0 | 0.00 | 0.03 | 0.03 | 89 | 1025.6 |
| 20260901130800 | 12 | 153 | 0.0 | 0.0 | 0.00 | 0.03 | 0.03 | 89 | 1025.7 |
| 20260901130258 | 12 | 153 | 0.0 | 0.0 | 0.00 | 0.03 | 0.03 | 89 | 1025.7 |
| 20260901125756 | 12 | 153 | 0.0 | 1.6 | 0.00 | 0.03 | 0.03 | 89 | 1025.6 |
| 20260901125253 | 12 | 153 | 0.0 | 1.6 | 0.00 | 0.03 | 0.03 | 89 | 1025.7 |
| 20260901124752 | 12 | 153 | 0.0 | 1.6 | 0.00 | 0.03 | 0.03 | 89 | 1025.7 |
| 20260901124250 | 12 | 153 | 0.0 | 1.6 | 0.00 | 0.03 | 0.03 | 89 | 1025.7 |
| 20260901123747 | 12 | 153 | 0.0 | 0.0 | 0.00 | 0.03 | 0.03 | 89 | 1025.7 |
| 20260901123247 | 12 | 153 | 0.0 | 0.0 | 0.00 | 0.03 | 0.03 | 88 | 1025.6 |
| 20260901122744 | 12 | 153 | 0.0 | 0.0 | 0.00 | 0.03 | 0.03 | 88 | 1025.6 |
| 20260901122242 | 12 | 153 | 0.0 | 0.0 | 0.00 | 0.03 | 0.03 | 88 | 1025.6 |
| 20260901121735 | 12 | 153 | 0.0 | 0.0 | 0.00 | 0.03 | 0.03 | 88 | 1025.7 |
| 20260901121718 | 12 | 153 | 0.0 | 0.0 | 0.00 | 0.03 | 0.03 | 88 | 1025.7 |
| 20260901120731 | 12 | 153 | 0.0 | 0.0 | 0.00 | 0.03 | 0.03 | 88 | 1025.7 |
| 20260901120234 | 12 | 153 | 0.0 | 0.0 | 0.00 | 0.03 | 0.03 | 88 | 1025.8 |
| 20260901115709 | 12 | 153 | 0.0 | 0.0 | 0.00 | 0.03 | 0.03 | 88 | 1025.8 |
| 20260901115209 | 12 | 153 | 0.0 | 1.6 | 0.00 | 0.03 | 0.03 | 88 | 1025.7 |
| 20260901114658 | 13 | 153 | 0.0 | 1.6 | 0.00 | 0.03 | 0.03 | 88 | 1025.7 |
| 20260901114155 | 13 | 153 | 0.0 | 1.6 | 0.00 | 0.03 | 0.03 | 88 | 1025.7 |
| 20260901113654 | 13 | 153 | 0.0 | 1.6 | 0.00 | 0.03 | 0.03 | 88 | 1025.8 |
| 20260901113151 | 13 | 153 | 0.0 | 1.6 | 0.00 | 0.03 | 0.03 | 88 | 1025.8 |
| 20260901112704 | 13 | 153 | 0.0 | 1.6 | 0.00 | 0.03 | 0.03 | 87 | 1025.8 |
| 20260901112147 | 13 | 153 | 0.0 | 0.0 | 0.00 | 0.03 | 0.03 | 87 | 1025.9 |
| 20260901111646 | 13 | 153 | 0.0 | 3.2 | 0.00 | 0.03 | 0.03 | 87 | 1025.9 |
| 20260901111144 | 13 | 153 | 0.0 | 3.2 | 0.00 | 0.03 | 0.03 | 87 | 1025.9 |
| 20260901110642 | 13 | 153 | 0.0 | 3.2 | 0.00 | 0.03 | 0.03 | 86 | 1025.9 |
| 20260901110418 | 13 | 153 | 1.6 | 3.2 | 0.00 | 0.03 | 0.03 | 86 | 1025.8 |
| 20260901105634 | 13 | 64 | 0.0 | 3.2 | 0.00 | 0.03 | 0.03 | 86 | 1025.8 |
| 20260901105132 | 13 | 65 | 0.0 | 0.0 | 0.00 | 0.03 | 0.03 | 86 | 1025.8 |
| 20260901104629 | 13 | 65 | 0.0 | 0.0 | 0.00 | 0.03 | 0.03 | 86 | 1025.8 |
| 20260901104132 | 13 | 65 | 0.0 | 0.0 | 0.00 | 0.03 | 0.03 | 85 | 1025.8 |
| 20260901103825 | 14 | 65 | 0.0 | 0.0 | 0.00 | 0.03 | 0.03 | 85 | 1025.9 |
| 20260901103035 | 14 | 65 | 0.0 | 1.6 | 0.00 | 0.03 | 0.03 | 85 | 1025.9 |